Location: Cambroso
(45.2833°N, 12.0850°E)
Time: 15:12:48
(UTC+00:00)

Meteor 2-15 - Pass Details

Date: 21 January 2021
Orbit: 936 x 955 km, 82.5° (Epoch: 26 February)

Event Time Altitude Azimuth Distance (km) Brightness Sun altitude
Rises 18:31:59 0° 351° (N) 3,644 7.6 -25.8°
Reaches altitude 10° 18:34:30 10° 352° (N) 2,695 6.9 -26.3°
Maximum altitude 18:40:41 87° 81° (E) 963 4.3 -27.4°
Drops below altitude 10° 18:46:50 10° 172° (S) 2,674 6.7 -28.4°
Sets 18:49:19 0° 172° (S) 3,614 7.4 -28.9°
